Time,TemperatureF,DewpointF,PressureIn,WindDirection,WindDirectionDegrees,WindSpeedMPH,WindSpeedGustMPH,Humidity,HourlyPrecipIn,Conditions,Clouds,dailyrainin,SoftwareType,DateUTC
2013-01-03 00:02:00,20.0,15.0,30.25,East,86,0.0,-999.0,82,-99.99,,,-99.99,,2013-01-03 06:02:00,
2013-01-03 00:12:00,20.0,15.0,30.25,East,86,0.0,-999.0,82,-99.99,,,-99.99,,2013-01-03 06:12:00,
2013-01-03 00:22:00,22.0,18.0,30.25,East,101,0.0,-999.0,83,-99.99,,,-99.99,,2013-01-03 06:22:00,
2013-01-03 00:32:00,22.0,18.0,30.25,East,98,0.0,-999.0,83,-99.99,,,-99.99,,2013-01-03 06:32:00,
2013-01-03 00:42:00,22.0,18.0,30.25,East,98,0.0,-999.0,83,-99.99,,,-99.99,,2013-01-03 06:42:00,
2013-01-03 00:52:00,22.0,18.0,30.25,East,98,0.0,-999.0,83,-99.99,,,-99.99,,2013-01-03 06:52:00,
2013-01-03 01:02:00,22.0,17.0,30.24,East,94,0.0,-999.0,82,-99.99,,,-99.99,,2013-01-03 07:02:00,
2013-01-03 01:12:00,22.0,17.0,30.24,East,94,0.0,-999.0,82,-99.99,,,-99.99,,2013-01-03 07:12:00,
2013-01-03 01:22:00,22.0,18.0,30.24,East,93,0.0,-999.0,83,-99.99,,,-99.99,,2013-01-03 07:22:00,
2013-01-03 01:32:00,21.0,17.0,30.25,East,92,0.0,-999.0,83,-99.99,,,-99.99,,2013-01-03 07:32:00,
2013-01-03 01:42:00,21.0,17.0,30.25,East,92,0.0,-999.0,83,-99.99,,,-99.99,,2013-01-03 07:42:00,
2013-01-03 01:53:00,21.0,17.0,30.26,East,79,0.0,-999.0,83,-99.99,,,-99.99,,2013-01-03 07:53:00,
2013-01-03 02:02:00,21.0,17.0,30.26,East,98,0.0,-999.0,83,-99.99,,,-99.99,,2013-01-03 08:02:00,
2013-01-03 02:12:00,21.0,17.0,30.26,East,98,0.0,-999.0,83,-99.99,,,-99.99,,2013-01-03 08:12:00,
2013-01-03 02:22:00,21.0,17.0,30.27,East,96,0.0,-999.0,83,-99.99,,,-99.99,,2013-01-03 08:22:00,
2013-01-03 02:32:00,22.0,18.0,30.27,East,95,0.0,-999.0,83,-99.99,,,-99.99,,2013-01-03 08:32:00,
2013-01-03 02:42:00,22.0,18.0,30.27,East,95,0.0,-999.0,83,-99.99,,,-99.99,,2013-01-03 08:42:00,
2013-01-03 02:53:00,22.0,18.0,30.28,North,360,0.0,-999.0,84,-99.99,,,-99.99,,2013-01-03 08:53:00,
2013-01-03 03:02:00,23.0,19.0,30.29,North,360,0.0,-999.0,83,-99.99,,,-99.99,,2013-01-03 09:02:00,
2013-01-03 03:12:00,23.0,19.0,30.29,North,360,0.0,-999.0,83,-99.99,,,-99.99,,2013-01-03 09:12:00,
2013-01-03 03:22:00,24.0,19.0,30.29,ESE,113,0.0,-999.0,82,-99.99,,,-99.99,,2013-01-03 09:22:00,
2013-01-03 03:33:00,24.0,19.0,30.29,North,360,0.0,-999.0,81,-99.99,,,-99.99,,2013-01-03 09:33:00,
2013-01-03 03:43:00,24.0,19.0,30.29,North,360,0.0,-999.0,81,-99.99,,,-99.99,,2013-01-03 09:43:00,
2013-01-03 03:53:00,25.0,20.0,30.28,East,101,0.0,-999.0,80,-99.99,,,-99.99,,2013-01-03 09:53:00,
2013-01-03 04:02:00,25.0,19.0,30.28,ESE,110,0.0,-999.0,79,-99.99,,,-99.99,,2013-01-03 10:02:00,
2013-01-03 04:12:00,25.0,19.0,30.28,ESE,110,0.0,-999.0,79,-99.99,,,-99.99,,2013-01-03 10:12:00,
2013-01-03 04:22:00,25.0,19.0,30.28,East,96,0.0,-999.0,79,-99.99,,,-99.99,,2013-01-03 10:22:00,
2013-01-03 04:32:00,24.0,18.0,30.29,North,360,0.0,-999.0,79,-99.99,,,-99.99,,2013-01-03 10:32:00,
2013-01-03 04:42:00,24.0,18.0,30.29,North,360,0.0,-999.0,79,-99.99,,,-99.99,,2013-01-03 10:42:00,
2013-01-03 04:53:00,24.0,18.0,30.29,North,360,0.0,-999.0,79,-99.99,,,-99.99,,2013-01-03 10:53:00,
2013-01-03 05:02:00,23.0,17.0,30.29,East,96,0.0,-999.0,79,-99.99,,,-99.99,,2013-01-03 11:02:00,
2013-01-03 05:12:00,23.0,17.0,30.29,East,96,0.0,-999.0,79,-99.99,,,-99.99,,2013-01-03 11:12:00,
2013-01-03 05:22:00,22.0,17.0,30.29,North,360,0.0,-999.0,80,-99.99,,,-99.99,,2013-01-03 11:22:00,
2013-01-03 05:33:00,22.0,17.0,30.30,North,360,0.0,-999.0,81,-99.99,,,-99.99,,2013-01-03 11:33:00,
2013-01-03 05:42:00,22.0,17.0,30.30,North,360,0.0,-999.0,81,-99.99,,,-99.99,,2013-01-03 11:42:00,
2013-01-03 05:53:00,23.0,18.0,30.30,East,90,0.0,-999.0,82,-99.99,,,-99.99,,2013-01-03 11:53:00,
2013-01-03 06:02:00,23.0,19.0,30.31,North,360,0.0,-999.0,83,-99.99,,,-99.99,,2013-01-03 12:02:00,
2013-01-03 06:12:00,23.0,19.0,30.31,North,360,0.0,-999.0,83,-99.99,,,-99.99,,2013-01-03 12:12:00,
2013-01-03 06:22:00,23.0,19.0,30.31,ESE,105,0.0,-999.0,83,-99.99,,,-99.99,,2013-01-03 12:22:00,
2013-01-03 06:32:00,22.0,18.0,30.32,ENE,72,0.0,-999.0,83,-99.99,,,-99.99,,2013-01-03 12:32:00,
2013-01-03 06:42:00,22.0,18.0,30.32,ENE,72,0.0,-999.0,83,-99.99,,,-99.99,,2013-01-03 12:42:00,
2013-01-03 06:53:00,21.0,17.0,30.32,East,92,0.0,-999.0,83,-99.99,,,-99.99,,2013-01-03 12:53:00,
2013-01-03 07:02:00,21.0,17.0,30.32,ESE,105,0.0,-999.0,83,-99.99,,,-99.99,,2013-01-03 13:02:00,
2013-01-03 07:12:00,21.0,17.0,30.32,ESE,105,0.0,-999.0,83,-99.99,,,-99.99,,2013-01-03 13:12:00,
2013-01-03 07:22:00,22.0,18.0,30.33,East,91,0.0,-999.0,84,-99.99,,,-99.99,,2013-01-03 13:22:00,
2013-01-03 07:33:00,23.0,19.0,30.34,East,92,0.0,-999.0,85,-99.99,,,-99.99,,2013-01-03 13:33:00,
2013-01-03 07:42:00,23.0,19.0,30.34,East,92,0.0,-999.0,85,-99.99,,,-99.99,,2013-01-03 13:42:00,
2013-01-03 07:53:00,23.0,19.0,30.34,East,80,0.0,-999.0,85,-99.99,,,-99.99,,2013-01-03 13:53:00,
2013-01-03 08:03:00,22.0,18.0,30.34,East,97,0.0,-999.0,85,-99.99,,,-99.99,,2013-01-03 14:03:00,
2013-01-03 08:12:00,22.0,18.0,30.34,East,97,0.0,-999.0,85,-99.99,,,-99.99,,2013-01-03 14:12:00,
2013-01-03 08:22:00,23.0,19.0,30.35,North,360,0.0,-999.0,85,-99.99,,,-99.99,,2013-01-03 14:22:00,
2013-01-03 08:33:00,24.0,20.0,30.35,ESE,102,0.0,-999.0,86,-99.99,,,-99.99,,2013-01-03 14:33:00,
2013-01-03 08:42:00,24.0,20.0,30.35,ESE,102,0.0,-999.0,86,-99.99,,,-99.99,,2013-01-03 14:42:00,
2013-01-03 08:53:00,25.0,21.0,30.36,ESE,102,0.0,-999.0,86,-99.99,,,-99.99,,2013-01-03 14:53:00,
2013-01-03 09:03:00,26.0,22.0,30.36,East,91,0.0,-999.0,86,-99.99,,,-99.99,,2013-01-03 15:03:00,
2013-01-03 09:12:00,26.0,22.0,30.36,East,91,0.0,-999.0,86,-99.99,,,-99.99,,2013-01-03 15:12:00,
2013-01-03 09:22:00,27.0,23.0,30.38,ENE,61,0.0,-999.0,85,-99.99,,,-99.99,,2013-01-03 15:22:00,
2013-01-03 09:33:00,28.0,24.0,30.39,NE,39,0.0,-999.0,85,-99.99,,,-99.99,,2013-01-03 15:33:00,
2013-01-03 09:43:00,28.0,24.0,30.39,NE,39,0.0,-999.0,85,-99.99,,,-99.99,,2013-01-03 15:43:00,
2013-01-03 09:53:00,29.0,25.0,30.40,North,360,0.0,-999.0,83,-99.99,,,-99.99,,2013-01-03 15:53:00,
2013-01-03 10:03:00,30.0,25.0,30.41,North,360,0.0,-999.0,81,-99.99,,,-99.99,,2013-01-03 16:03:00,
2013-01-03 10:12:00,30.0,25.0,30.41,North,360,0.0,-999.0,81,-99.99,,,-99.99,,2013-01-03 16:12:00,
2013-01-03 10:22:00,31.0,25.0,30.41,East,89,0.0,-999.0,79,-99.99,,,-99.99,,2013-01-03 16:22:00,
2013-01-03 10:33:00,31.0,25.0,30.41,ENE,69,0.0,-999.0,77,-99.99,,,-99.99,,2013-01-03 16:33:00,
2013-01-03 10:43:00,31.0,25.0,30.41,ENE,69,0.0,-999.0,77,-99.99,,,-99.99,,2013-01-03 16:43:00,
2013-01-03 10:53:00,33.0,26.0,30.40,ESE,105,0.0,-999.0,76,-99.99,,,-99.99,,2013-01-03 16:53:00,
2013-01-03 11:03:00,33.0,26.0,30.40,SE,126,0.0,-999.0,75,-99.99,,,-99.99,,2013-01-03 17:03:00,
2013-01-03 11:12:00,33.0,26.0,30.40,SE,126,0.0,-999.0,75,-99.99,,,-99.99,,2013-01-03 17:12:00,
2013-01-03 11:23:00,34.0,26.0,30.40,North,360,0.0,-999.0,73,-99.99,,,-99.99,,2013-01-03 17:23:00,
2013-01-03 11:33:00,35.0,27.0,30.39,SE,124,0.0,-999.0,71,-99.99,,,-99.99,,2013-01-03 17:33:00,
2013-01-03 11:43:00,35.0,27.0,30.39,SE,124,0.0,-999.0,71,-99.99,,,-99.99,,2013-01-03 17:43:00,
2013-01-03 11:53:00,36.0,27.0,30.39,SE,140,0.0,-999.0,70,-99.99,,,-99.99,,2013-01-03 17:53:00,
2013-01-03 12:03:00,37.0,27.0,30.38,SE,137,0.0,-999.0,68,-99.99,,,-99.99,,2013-01-03 18:03:00,
2013-01-03 12:13:00,37.0,27.0,30.38,SE,137,0.0,-999.0,68,-99.99,,,-99.99,,2013-01-03 18:13:00,
2013-01-03 12:22:00,38.0,28.0,30.37,SE,130,0.0,-999.0,66,-99.99,,,-99.99,,2013-01-03 18:22:00,
2013-01-03 12:33:00,38.0,27.0,30.37,East,94,0.0,-999.0,65,-99.99,,,-99.99,,2013-01-03 18:33:00,
2013-01-03 12:42:00,38.0,27.0,30.37,East,94,0.0,-999.0,65,-99.99,,,-99.99,,2013-01-03 18:42:00,
2013-01-03 12:53:00,38.0,27.0,30.37,North,360,0.0,-999.0,65,-99.99,,,-99.99,,2013-01-03 18:53:00,
2013-01-03 13:03:00,38.0,27.0,30.36,SSE,153,0.0,-999.0,65,-99.99,,,-99.99,,2013-01-03 19:03:00,
2013-01-03 13:12:00,38.0,27.0,30.36,SSE,153,0.0,-999.0,65,-99.99,,,-99.99,,2013-01-03 19:12:00,
2013-01-03 13:55:00,39.0,28.0,30.35,SSE,150,0.0,-999.0,65,-99.99,,,-99.99,,2013-01-03 19:55:00,
2013-01-03 14:03:00,39.0,28.0,30.36,SE,128,0.0,-999.0,64,-99.99,,,-99.99,,2013-01-03 20:03:00,
2013-01-03 14:12:00,39.0,28.0,30.36,SE,128,0.0,-999.0,64,-99.99,,,-99.99,,2013-01-03 20:12:00,
2013-01-03 14:22:00,39.0,27.0,30.36,North,360,0.0,-999.0,62,-99.99,,,-99.99,,2013-01-03 20:22:00,
2013-01-03 14:33:00,40.0,27.0,30.36,SE,130,0.0,-999.0,60,-99.99,,,-99.99,,2013-01-03 20:33:00,
2013-01-03 14:42:00,40.0,27.0,30.36,SE,130,0.0,-999.0,60,-99.99,,,-99.99,,2013-01-03 20:42:00,
2013-01-03 14:53:00,40.0,27.0,30.37,North,360,0.0,-999.0,60,-99.99,,,-99.99,,2013-01-03 20:53:00,
2013-01-03 15:02:00,39.0,26.0,30.37,North,360,0.0,-999.0,60,-99.99,,,-99.99,,2013-01-03 21:02:00,
2013-01-03 15:12:00,39.0,26.0,30.37,North,360,0.0,-999.0,60,-99.99,,,-99.99,,2013-01-03 21:12:00,
2013-01-03 15:22:00,39.0,26.0,30.37,ESE,114,0.0,-999.0,60,-99.99,,,-99.99,,2013-01-03 21:22:00,
2013-01-03 15:35:00,38.0,26.0,30.37,North,360,0.0,-999.0,61,-99.99,,,-99.99,,2013-01-03 21:35:00,
2013-01-03 15:48:00,38.0,26.0,30.37,North,360,0.0,-999.0,61,-99.99,,,-99.99,,2013-01-03 21:48:00,
2013-01-03 15:53:00,38.0,26.0,30.38,East,80,0.0,-999.0,61,-99.99,,,-99.99,,2013-01-03 21:53:00,
2013-01-03 16:02:00,38.0,26.0,30.38,ENE,75,0.0,-999.0,62,-99.99,,,-99.99,,2013-01-03 22:02:00,
2013-01-03 16:12:00,38.0,26.0,30.38,ENE,75,0.0,-999.0,62,-99.99,,,-99.99,,2013-01-03 22:12:00,
2013-01-03 16:22:00,38.0,27.0,30.38,East,79,0.0,-999.0,63,-99.99,,,-99.99,,2013-01-03 22:22:00,
2013-01-03 16:32:00,38.0,27.0,30.38,ENE,74,0.0,-999.0,63,-99.99,,,-99.99,,2013-01-03 22:32:00,
2013-01-03 16:42:00,38.0,27.0,30.38,ENE,74,0.0,-999.0,63,-99.99,,,-99.99,,2013-01-03 22:42:00,
2013-01-03 16:52:00,37.0,26.0,30.39,ENE,69,0.0,-999.0,64,-99.99,,,-99.99,,2013-01-03 22:52:00,
2013-01-03 17:02:00,36.0,25.0,30.40,ENE,62,0.0,-999.0,65,-99.99,,,-99.99,,2013-01-03 23:02:00,
2013-01-03 17:12:00,36.0,25.0,30.40,ENE,62,0.0,-999.0,65,-99.99,,,-99.99,,2013-01-03 23:12:00,
2013-01-03 17:22:00,35.0,25.0,30.40,East,79,0.0,-999.0,66,-99.99,,,-99.99,,2013-01-03 23:22:00,
2013-01-03 17:32:00,34.0,25.0,30.40,ENE,71,0.0,-999.0,68,-99.99,,,-99.99,,2013-01-03 23:32:00,
2013-01-03 17:42:00,34.0,25.0,30.40,ENE,71,0.0,-999.0,68,-99.99,,,-99.99,,2013-01-03 23:42:00,
2013-01-03 17:53:00,32.0,23.0,30.40,East,86,0.0,-999.0,70,-99.99,,,-99.99,,2013-01-03 23:53:00,
2013-01-03 18:03:00,32.0,24.0,30.40,ENE,64,0.0,-999.0,73,-99.99,,,-99.99,,2013-01-04 00:03:00,
2013-01-03 18:12:00,32.0,24.0,30.40,ENE,64,0.0,-999.0,73,-99.99,,,-99.99,,2013-01-04 00:12:00,
2013-01-03 18:22:00,31.0,24.0,30.41,North,360,0.0,-999.0,75,-99.99,,,-99.99,,2013-01-04 00:22:00,
2013-01-03 18:32:00,30.0,23.0,30.41,East,90,0.0,-999.0,76,-99.99,,,-99.99,,2013-01-04 00:32:00,
2013-01-03 18:42:00,30.0,23.0,30.41,East,90,0.0,-999.0,76,-99.99,,,-99.99,,2013-01-04 00:42:00,
2013-01-03 18:53:00,31.0,25.0,30.40,East,94,0.0,-999.0,77,-99.99,,,-99.99,,2013-01-04 00:53:00,
2013-01-03 19:02:00,32.0,26.0,30.42,East,95,0.0,-999.0,77,-99.99,,,-99.99,,2013-01-04 01:02:00,
2013-01-03 19:12:00,32.0,26.0,30.42,East,95,0.0,-999.0,77,-99.99,,,-99.99,,2013-01-04 01:12:00,
2013-01-03 19:22:00,34.0,27.0,30.42,North,360,0.0,-999.0,74,-99.99,,,-99.99,,2013-01-04 01:22:00,
2013-01-03 19:32:00,34.0,25.0,30.42,East,101,0.0,-999.0,70,-99.99,,,-99.99,,2013-01-04 01:32:00,
2013-01-03 19:42:00,34.0,25.0,30.42,East,101,0.0,-999.0,70,-99.99,,,-99.99,,2013-01-04 01:42:00,
2013-01-03 19:52:00,34.0,25.0,30.43,ENE,76,0.0,-999.0,70,-99.99,,,-99.99,,2013-01-04 01:52:00,
2013-01-03 20:02:00,34.0,25.0,30.42,East,93,0.0,-999.0,70,-99.99,,,-99.99,,2013-01-04 02:02:00,
2013-01-03 20:12:00,34.0,25.0,30.42,East,93,0.0,-999.0,70,-99.99,,,-99.99,,2013-01-04 02:12:00,
2013-01-03 20:22:00,34.0,26.0,30.42,ENE,68,0.0,-999.0,71,-99.99,,,-99.99,,2013-01-04 02:22:00,
2013-01-03 20:32:00,34.0,26.0,30.43,North,360,0.0,-999.0,71,-99.99,,,-99.99,,2013-01-04 02:32:00,
2013-01-03 20:42:00,34.0,26.0,30.43,North,360,0.0,-999.0,71,-99.99,,,-99.99,,2013-01-04 02:42:00,
2013-01-03 20:53:00,34.0,26.0,30.43,North,360,0.0,-999.0,72,-99.99,,,-99.99,,2013-01-04 02:53:00,
2013-01-03 21:02:00,34.0,26.0,30.43,ESE,106,0.0,-999.0,72,-99.99,,,-99.99,,2013-01-04 03:02:00,
2013-01-03 21:12:00,34.0,26.0,30.43,ESE,106,0.0,-999.0,72,-99.99,,,-99.99,,2013-01-04 03:12:00,
2013-01-03 21:22:00,34.0,26.0,30.43,East,84,0.0,-999.0,73,-99.99,,,-99.99,,2013-01-04 03:22:00,
2013-01-03 21:32:00,34.0,26.0,30.43,ESE,108,0.0,-999.0,73,-99.99,,,-99.99,,2013-01-04 03:32:00,
2013-01-03 21:42:00,34.0,26.0,30.43,ESE,108,0.0,-999.0,73,-99.99,,,-99.99,,2013-01-04 03:42:00,
2013-01-03 21:53:00,34.0,26.0,30.43,North,360,0.0,-999.0,72,-99.99,,,-99.99,,2013-01-04 03:53:00,
2013-01-03 22:02:00,34.0,26.0,30.44,North,360,0.0,-999.0,72,-99.99,,,-99.99,,2013-01-04 04:02:00,
2013-01-03 22:12:00,34.0,26.0,30.44,North,360,0.0,-999.0,72,-99.99,,,-99.99,,2013-01-04 04:12:00,
2013-01-03 22:22:00,34.0,26.0,30.42,North,360,0.0,-999.0,72,-99.99,,,-99.99,,2013-01-04 04:22:00,
2013-01-03 22:32:00,34.0,26.0,30.42,North,360,0.0,-999.0,73,-99.99,,,-99.99,,2013-01-04 04:32:00,
2013-01-03 22:42:00,34.0,26.0,30.42,North,360,0.0,-999.0,73,-99.99,,,-99.99,,2013-01-04 04:42:00,
2013-01-03 22:52:00,33.0,25.0,30.43,North,360,0.0,-999.0,73,-99.99,,,-99.99,,2013-01-04 04:52:00,
2013-01-03 23:03:00,33.0,26.0,30.44,North,360,0.0,-999.0,74,-99.99,,,-99.99,,2013-01-04 05:03:00,
2013-01-03 23:12:00,33.0,26.0,30.44,North,360,0.0,-999.0,74,-99.99,,,-99.99,,2013-01-04 05:12:00,
2013-01-03 23:22:00,32.0,25.0,30.44,North,360,0.0,-999.0,74,-99.99,,,-99.99,,2013-01-04 05:22:00,
2013-01-03 23:33:00,32.0,25.0,30.43,North,360,0.0,-999.0,75,-99.99,,,-99.99,,2013-01-04 05:33:00,
2013-01-03 23:42:00,32.0,25.0,30.43,North,360,0.0,-999.0,75,-99.99,,,-99.99,,2013-01-04 05:42:00,
2013-01-03 23:53:00,31.0,24.0,30.43,North,360,0.0,-999.0,76,-99.99,,,-99.99,,2013-01-04 05:53:00,